Regional Weather Roundup
Issued by NWS

Home | Current Version | Previous Version | Graphics & Text | Print | Product List | Glossary On
Versions: 1 2 3 4 5 6 7 8 9 10 11 12 13 14 15 16 17 18 19 20 21 22 23 24 25 26 27 28 29 30 31 32 33 34 35 36 37 38 39 40 41 42 43 44 45 46 47 48 49 50
000
ASUS43 KOAX 121202
RWRNE

WEATHER ROUNDUP FOR NEBRASKA
NATIONAL WEATHER SERVICE OMAHA NE
700 AM CDT SAT JUL 12 2014

NOTES: SATELLITE DATA IS BEING USED TO AUGMENT CLOUD COVER ABOVE
       12000 FEET.
       "FAIR" INDICATES FEW OR NO CLOUDS BELOW 12,000 FEET WITH NO
       SIGNIFICANT WEATHER AND/OR OBSTRUCTIONS TO VISIBILITY.

  * THESE STATIONS DO NOT REPORT WEATHER SUCH AS RAIN...SNOW OR FOG.

NEZ001>004-019>022-054>056-121300-
NEBRASKA PANHANDLE

CITY           SKY/WX    TMP DP  RH WIND       PRES   REMARKS
SCOTTSBLUFF    MOCLDY    61  59  93 N6        30.15R
6HR MIN TEMP:  60; 6HR MAX TEMP:  63;

ALLIANCE       CLOUDY    61  58  90 NW8       30.15R
6HR MIN TEMP:  59; 6HR MAX TEMP:  61;

CHADRON        MOCLDY    63  60  90 CALM      30.14R
6HR MIN TEMP:  62; 6HR MAX TEMP:  66; 6HR PCP: TRACE;

KIMBALL        CLOUDY    62  61  97 NW5       30.17S FOG
SIDNEY         CLOUDY    62  60  93 NW8       30.17R
6HR MIN TEMP:  62; 6HR MAX TEMP:  66;

$$

NEZ057>060-069>072-079>082-121300-
SOUTHWEST NEBRASKA

CITY           SKY/WX    TMP DP  RH WIND       PRES   REMARKS
NORTH PLATTE   CLOUDY    67  65  93 N6        30.05R
6HR MIN TEMP:  65; 6HR MAX TEMP:  68; 6HR PCP: TRACE;

IMPERIAL       CLOUDY    69  66  90 NW8       30.07R
6HR MIN TEMP:  69; 6HR MAX TEMP:  73; 6HR PCP:  0.02;

LEXINGTON      CLOUDY    72  71  94 E6        30.00R FOG
MCCOOK         MOCLDY    71  69  93 NW8       30.01R FOG
6HR MIN TEMP:  70; 6HR MAX TEMP:  79;

OGALLALA       CLOUDY    66  65  94 NW5       30.09R
$$

NEZ005>010-023>029-035>040-094-121300-
NORTH CENTRAL NEBRASKA

CITY           SKY/WX    TMP DP  RH WIND       PRES   REMARKS
VALENTINE      CLOUDY    68  63  84 N9        30.08R
6HR MIN TEMP:  67; 6HR MAX TEMP:  71;

AINSWORTH      CLOUDY    67  66  99 NE3       30.07R
BROKEN BOW     CLOUDY    69  67  93 E7        30.01S
6HR MIN TEMP:  67; 6HR MAX TEMP:  75; 6HR PCP:  0.14;

O`NEILL        CLOUDY    66  62  87 E5        30.01S
ORD            CLOUDY    68  65  90 SE7       29.99R
6HR MIN TEMP:  68; 6HR MAX TEMP:  73; 6HR PCP:  0.21;

THEDFORD       CLOUDY    67  66  97 CALM      30.08R
$$

NEZ041-046>049-061>064-073>077-083>087-121300-
SOUTH CENTRAL NEBRASKA

CITY           SKY/WX    TMP DP  RH WIND       PRES   REMARKS
GRAND ISLAND   CLOUDY    72  70  93 E14       30.01F FOG
6HR MIN TEMP:  71; 6HR MAX TEMP:  79;

AURORA         CLOUDY    70  70 100 E9        30.00F
HASTINGS       MOCLDY    70  63  78 E7        30.01F
6HR MIN TEMP:  68; 6HR MAX TEMP:  78;

HEBRON         MOCLDY    71  65  80 CALM      30.01S
HOLDREGE       PTCLDY    68  62  80 SE7       29.99F
KEARNEY *      MOCLDY    70  63  78 E9        30.00F
YORK           CLOUDY    70  68  94 E5        30.02S
$$

NEZ011>018-030>034-042>045-121300-
NORTHEAST NEBRASKA

CITY           SKY/WX    TMP DP  RH WIND       PRES   REMARKS
NORFOLK        CLOUDY    68  66  93 E9        30.00F
6HR MIN TEMP:  68; 6HR MAX TEMP:  74; 6HR PCP:  0.02;

ALBION         LGT RAIN  67  66  97 E10       29.99F
BLAIR          CLOUDY    70  67  89 E8        30.02F
TEKAMAH        CLOUDY    69  67  93 SE3       30.01F
6HR MIN TEMP:  69; 6HR MAX TEMP:  76;

WAYNE          CLOUDY    69  68  97 SE6       30.01F
$$

NEZ050>053-065>068-078-088>093-121300-
SOUTHEAST NEBRASKA

CITY           SKY/WX    TMP DP  RH WIND       PRES   REMARKS
LINCOLN        CLOUDY    74  70  87 CALM      30.02F
6HR MIN TEMP:  73; 6HR MAX TEMP:  81;

OMAHA EPPLEY   CLOUDY    72  67  84 N3        30.02F
6HR MIN TEMP:  72; 6HR MAX TEMP:  78;

BEATRICE       CLOUDY    69  65  85 CALM      30.02S
FALLS CITY     CLOUDY    73  69  87 N3        30.01R
6HR MIN TEMP:  73; 6HR MAX TEMP:  79; 6HR PCP: TRACE;

NEBRASKA CITY  CLOUDY    73  69  88 CALM      30.02F
PLATTSMOUTH    CLOUDY    73  70  90 CALM      30.02F
$$

NEZ044-045-051>053-067-121300-
OMAHA AREA

CITY           SKY/WX    TMP DP  RH WIND       PRES   REMARKS
OMAHA EPPLEY   CLOUDY    72  67  84 N3        30.02F
6HR MIN TEMP:  72; 6HR MAX TEMP:  78;

BLAIR          CLOUDY    70  67  89 E8        30.02F
MILLARD        CLOUDY    73  69  85 E5        30.01F
OFFUTT AFB     CLOUDY    72  72 100 NE7       30.01F
PLATTSMOUTH    CLOUDY    73  70  90 CALM      30.02F
WAHOO          FAIR      72  68  88 E3        30.01F
$$


USA.gov is the U.S. government's official web portal to all federal, state and local government web resources and services.